YAOGAN 16A

导读

YAOGAN 16A(遥感十六号A星)是中国自主研制的遥感卫星,于北京时间2012年11月25日8时成功发射。该卫星属于中国遥感卫星系列,主要用于国土普查、地理测绘、灾害监测等领域,为经济建设、资源开发和防灾减灾提供精准空间信息支撑,是中国对地观测体系的重要组成,推动了我国航天遥感应用能力的稳步提升。

Basic Information
目录编号:
39011
目录名称:
YAOGAN 16A
国际标识:
2012-066A
轨道中心:
EARTH
卫星名称:
YAOGAN 16A
卫星全名:
--
卫星状态:
在轨 (已飞行5038 天)
发射日期:
2012-11-25 UTC
国别 :
中国 (CN)
星等 :
--
This satellite is enrolled in the Space Conjunction Data Service (SCDS) and the current flight risk assessment level is: No High Risk
Orbit Information
数据来源 国际轨道数据 AOE轨道数据
星历时间 2026-09-11T01:20:51+0800
16小时前
查看轨道信息
2026-09-10T09:00:00+0800
1天前
查看轨道信息
半长轴 7466.92km 7466.915km
偏心率 0.0442442 0.0442821
轨道倾角 63.351° 63.352°
近地点辐角 27.843° 27.887°
升交点赤经 68.857° 70.619°
平近点角 334.553° 275.099°
近地点 758.415km 758.127km
远地点 1419.151km 1419.429km
周期 107.022分钟 107.022分钟
每日圈数 13.455213 13.455225
Detailed Information
使用方式:
暂无
2D Orbit Map
3D Orbit Map
Orbit Altitude Analysis Chart
Orbit Inclination Analysis Chart
Orbit Comprehensive Analysis Chart
View Comprehensive Chart
Conjunction Data List
Event ID Objects TCA Miss Dist (km) Collision Risk Probability Collision Risk Index (CRI) Action
CDM_260913-024203-520803-901122
2026-09-13T
02:42:54+0000
2.595 km
极远距离
1.621223E-6 低风险 0.39
Miss Distance Evolution Trend with All Objects
Collision Probability Evolution Trend with All Objects